Flag for Germany Weather past 2 weeks in Hamburg, Hamburg, Germany

Now
59 °F

Clear.


Feels Like: 59 °F
Forecast: 56 / 66 °F
Wind: 1 mph from North

Location: Hamburg-Fuhlsbuettel

Current Time: Oct 1, 2014 at 8:51:08 PM

Latest Report: Oct 1, 2014 at 8:20 PM


Visibility: 6 mi

Pressure: 30.30 "Hg

Humidity: 94%

Dew point: 57 °F

Location of HamburgLocation

Historic Weather in Hamburg — Graph

°F

Hamburg temperature yesterday

Maximum temperature yesterday: 66 °F (at 1:50 PM)
Minimum temperature yesterday: 59 °F (at 1:20 AM)
Average temperature yesterday: 62 °F

Past Weeks' High & Low Weather Summary

 TemperatureHumidityPressure
High75 °F (Sep 19, 3:20 PM)100% (Sep 18, 4:50 AM)30.33 "Hg (Sep 18, 4:50 AM)
Low39 °F (Sep 23, 5:50 AM)50% (Sep 18, 3:50 PM)29.74 "Hg (Sep 24, 4:20 PM)
Average59 °F81%30.04 "Hg
* Reported Sep 16 7:20 PM — Oct 1 7:50 PM, Hamburg, Weather by CustomWeather, © 2014

Note: Actual official high and low records may vary slightly from our data, if they occured in-between our weather recording intervals... More about our weather records

Advertising

Hamburg weather history for previous 24 hours

 ConditionsComfort  
Time TempWeatherWind HumidityBarometerVisibility
7:50 PM
Oct 1
59 °FClear.1 mph94%30.30 "Hg6 mi
7:20 PM61 °FBroken clouds.1 mph88%30.30 "HgN/A
6:50 PM63 °FBroken clouds.3 mph88%30.27 "HgN/A
6:20 PM64 °FPartly sunny.1 mph83%30.27 "HgN/A
5:50 PM64 °FBroken clouds.5 mph83%30.27 "HgN/A
5:20 PM66 °FPartly sunny.3 mph78%30.27 "HgN/A
4:50 PM66 °FBroken clouds.5 mph73%30.27 "HgN/A
4:20 PM66 °FBroken clouds.8 mph68%30.27 "HgN/A
3:50 PM68 °FBroken clouds.9 mph64%30.27 "HgN/A
3:20 PM68 °FScattered clouds.9 mph64%30.27 "HgN/A
2:50 PM66 °FBroken clouds.8 mph73%30.27 "HgN/A
2:20 PM66 °FBroken clouds.8 mph73%30.27 "HgN/A
1:50 PM66 °FBroken clouds.7 mph73%30.27 "HgN/A
1:20 PM66 °FBroken clouds.7 mph73%30.30 "HgN/A
12:50 PM64 °FBroken clouds.6 mph83%30.30 "HgN/A
12:20 PM64 °FScattered clouds.7 mph78%30.30 "Hg5 mi
11:50 AM63 °FPartly sunny.6 mph83%30.30 "Hg5 mi
11:20 AM63 °FPartly sunny.7 mph83%30.30 "Hg5 mi
10:50 AM63 °FScattered clouds.6 mph88%30.30 "Hg4 mi
10:20 AM61 °FFog.6 mph94%30.30 "Hg2 mi
9:50 AM59 °FFog.2 mph100%30.27 "Hg2 mi
9:20 AM57 °FFog.2 mph100%30.27 "Hg2 mi
8:50 AM55 °FFog.3 mph100%30.27 "Hg2 mi
8:20 AM55 °FPartly sunny.1 mph100%30.27 "Hg2 mi
7:50 AM55 °FPassing clouds.1 mph100%30.27 "Hg1 mi
7:20 AM54 °FFog.1 mph100%30.27 "Hg0 mi
6:50 AM54 °FFog.3 mph100%30.27 "Hg0 mi
6:20 AM52 °FFog.1 mph100%30.27 "Hg0 mi
5:50 AM52 °FFog.1 mph100%30.27 "Hg0 mi
5:20 AM52 °FFog.1 mph100%30.27 "Hg0 mi
4:50 AM54 °FFog.1 mph100%30.27 "Hg0 mi
4:20 AM55 °FFog.3 mph100%30.27 "Hg0 mi
3:50 AM55 °FFog.1 mph100%30.27 "Hg0 mi
3:20 AM57 °FFog.2 mph100%30.27 "Hg1 mi
2:50 AM57 °FPassing clouds.3 mph100%30.27 "Hg1 mi
2:20 AM59 °FSnow. Overcast.3 mph100%30.27 "Hg1 mi
1:50 AM59 °FPassing clouds.6 mph94%30.27 "Hg1 mi
1:20 AM59 °FFog.2 mph100%30.24 "Hg2 mi
12:50 AM61 °FRain showers. Passing clouds.2 mph94%30.24 "Hg1 mi
12:20 AM61 °FRain showers. Passing clouds.3 mph94%30.24 "Hg1 mi
11:50 PM
Sep 30
61 °FSprinkles. Partly cloudy.3 mph94%30.24 "Hg3 mi
11:20 PM61 °FSprinkles. Passing clouds.3 mph94%30.24 "Hg3 mi
10:50 PM61 °FSprinkles. Passing clouds.3 mph94%30.24 "Hg3 mi
10:20 PM61 °FSprinkles. Passing clouds.3 mph94%30.24 "Hg4 mi
9:50 PM61 °FSprinkles. Partly cloudy.3 mph94%30.24 "Hg5 mi
9:20 PM61 °FPassing clouds.2 mph94%30.24 "Hg6 mi
8:50 PM59 °FPassing clouds.3 mph100%30.24 "Hg4 mi
8:20 PM61 °FPassing clouds.2 mph94%30.24 "Hg4 mi
Weather by CustomWeather, © 2014

See weather overviewHow to use our weather pages